Temp
6 7 7 7 7 7 8 8 8 8 8 8 8 8 8 8 8 9 11 11 11 9 9 14 16 16 15 15 16 17 18 18 18 20 21 21 23 23 22 22 22 20 21 20 19 22 25 22 23 25 21 21 21 21
6 6 7 7 7 7 7 7 7 8 8 8 8 8 8 9 9 9 10 12 11 9 11 15 16 17 17 17 16 15 17 17 17 18 18 19 21 19 18 22 20 19 19 18 19 18 20 19 19 19 20 20 20 20
6 6 7 7 7 7 7 7 8 8 8 8 9 9 9 10 10 10 10 11 11 8 10 12 16 19 20 18 18 17 15 17 18 17 16 17 18 17 18 18 19 20 19 20 18 18 18 18 19 19 19 19 19 19
6 6 6 7 7 7 7 8 8 8 9 9 9 10 10 10 10 10 11 12 11 9 10 12 17 17 20 21 20 21 20 18 16 15 16 15 18 16 17 16 15 16 18 17 17 17 18 17 17 18 19 19 18 18
7 7 7 7 7 7 8 9 9 9 9 10 10 10 10 11 11 11 12 12 12 11 11 10 13 18 20 21 22 22 18 15 14 17 16 16 15 16 14 14 15 14 15 16 16 15 16 16 17 18 17 17 17 17
7 7 7 7 7 7 8 9 9 10 10 11 11 11 11 12 13 13 10 13 13 12 10 11 12 13 18 21 21 20 16 13 12 13 14 14 14 14 14 14 15 14 15 15 14 15 15 16 16 17 16 16 16 15
7 7 7 7 8 8 9 10 10 11 11 12 12 12 12 12 13 12 11 14 13 12 10 11 11 14 15 16 15 16 15 13 14 14 14 14 14 13 13 14 15 15 15 15 15 15 15 15 14 15 15 14 14 13
7 8 8 9 9 9 9 10 11 12 12 12 13 13 14 14 14 14 14 14 13 12 9 10 11 13 14 14 16 12 15 14 13 14 14 14 13 13 14 14 14 14 15 15 15 14 13 14 13 13 13 12 11 11
10 10 9 9 10 10 11 11 11 12 13 14 14 14 14 14 13 14 14 14 13 12 9 9 12 13 12 12 11 15 13 15 13 14 15 14 14 14 14 13 14 16 15 14 14 14 13 12 12 12 11 11 11 11
10 10 10 10 10 11 12 12 13 14 14 15 15 14 10 13 13 13 13 9 8 8 8 9 9 11 11 11 13 15 14 15 14 15 13 15 15 14 14 13 13 14 14 14 13 12 11 11 10 10 10 10 10 10
11 11 11 11 11 11 12 13 14 15 14 14 10 10 13 13 13 9 10 11 10 11 9 9 9 10 10 12 12 12 15 14 15 15 13 14 15 14 14 14 14 14 14 14 13 12 12 11 10 10 10 10 10 9
12 12 12 11 12 12 13 13 13 14 13 12 11 12 12 10 9 12 11 11 11 12 11 11 11 10 10 10 12 13 15 14 17 13 13 13 15 14 13 15 14 14 15 14 13 12 12 12 11 11 10 10 9 9
13 13 13 12 13 13 13 13 13 13 12 12 11 11 11 10 11 13 12 12 12 12 12 12 12 10 10 10 12 12 16 15 13 12 13 12 12 13 13 14 14 15 15 14 13 13 12 12 11 11 10 10 10 9
14 14 14 13 13 14 14 14 14 14 13 10 10 8 10 11 10 10 11 11 11 10 11 11 11 11 11 12 12 16 13 14 14 13 13 12 12 12 13 13 13 14 14 14 14 13 12 12 11 11 11 10 10 9
16 15 15 14 14 14 14 14 14 14 13 10 10 10 10 10 9 10 9 9 9 9 10 11 11 12 12 13 13 14 15 14 14 15 12 11 11 12 12 13 12 13 13 13 14 13 12 12 11 11 11 11 10 10
17 16 15 14 14 15 15 14 14 14 11 11 10 11 9 10 10 9 8 9 9 8 9 10 11 13 13 13 14 14 14 14 14 12 11 11 12 12 12 12 13 14 14 14 14 13 13 12 12 12 11 11 11 10
17 17 16 15 16 16 15 14 14 10 11 12 11 8 9 9 9 8 8 9 9 9 11 11 13 14 12 14 14 14 14 14 13 12 11 12 12 12 12 13 14 14 14 14 13 13 13 13 12 11 11 11 11 10
17 16 16 16 16 16 15 15 13 12 14 11 12 10 9 9 9 9 9 9 10 10 11 13 12 14 14 15 14 14 13 12 12 12 12 12 13 13 14 14 14 14 14 14 14 13 13 12 12 12 12 12 11 11
17 18 17 16 16 16 14 15 14 13 13 12 12 12 11 11 11 11 11 11 11 11 11 12 13 13 13 13 14 13 13 13 12 12 12 13 14 14 14 14 14 14 14 14 14 13 13 13 13 13 13 12 12 11
18 18 17 16 17 16 16 14 15 13 14 13 11 12 12 12 12 12 12 11 11 12 13 13 13 13 13 13 13 13 12 12 12 12 12 11 13 14 14 14 14 14 14 14 14 13 13 13 13 13 13 13 11 12
17 17 17 17 16 15 14 14 14 12 11 13 11 12 12 11 12 12 12 11 11 11 12 12 13 13 13 13 14 13 13 14 13 13 12 12 13 14 14 14 14 14 14 13 13 13 13 13 14 14 13 13 13 13
16 16 17 17 16 15 14 16 14 13 13 13 13 12 13 13 12 13 11 11 11 12 12 12 12 12 12 13 14 15 15 15 15 15 15 15 12 12 13 14 14 14 13 13 13 13 14 15 14 14 14 14 13 13
16 16 16 16 16 12 15 16 16 15 16 14 12 14 13 13 13 11 12 11 11 11 12 13 14 15 15 16 16 16 16 16 14 15 15 15 15 15 15 15 16 15 13 15 15 15 15 16 15 15 14 13 13 13
15 15 15 15 15 15 15 15 14 14 14 15 16 17 15 13 11 11 14 11 11 12 12 15 15 12 14 14 12 14 16 16 15 15 15 15 13 14 16 17 16 16 17 17 16 16 16 16 15 15 15 13 13 13
12 12 13 9 13 16 16 16 15 15 17 15 18 16 15 12 13 13 14 11 11 11 12 13 13 12 12 11 13 16 17 17 16 15 16 17 17 15 15 16 16 17 16 16 16 16 16 16 15 15 15 14 13 13
12 14 13 17 17 18 17 17 17 16 16 17 16 15 15 14 15 14 12 12 12 12 12 12 12 12 12 13 13 15 18 19 18 17 17 18 17 17 15 13 14 16 17 17 16 16 16 16 16 15 15 14 13 13
13 16 15 13 15 14 15 15 15 15 17 18 18 16 17 17 16 14 11 11 12 17 18 18 18 17 16 17 18 19 18 18 19 19 18 17 17 17 17 15 15 17 17 17 16 16 16 16 16 15 15 14 13 13
15 16 18 16 16 15 15 16 17 17 17 15 16 18 18 17 15 13 12 19 20 20 20 19 19 19 19 19 19 19 18 18 18 17 17 17 17 17 17 16 16 17 17 17 17 17 16 16 15 15 15 14 14 13
15 15 15 18 17 15 16 16 16 15 15 15 18 18 18 14 14 15 18 20 19 19 18 18 19 18 17 17 18 18 19 18 18 16 15 12 13 16 16 16 16 16 16 16 16 16 17 15 15 15 14 13 13 13
17 16 17 18 18 17 16 15 16 15 14 16 16 15 14 15 19 20 20 20 19 19 19 20 19 17 17 18 17 17 18 18 18 17 12 12 14 14 15 15 15 15 15 15 16 14 14 14 14 13 13 13 12 11
15 15 17 16 17 15 15 15 16 17 17 16 15 15 15 15 18 20 20 21 21 19 19 18 18 18 19 17 17 16 15 17 17 17 16 15 14 14 14 14 14 14 14 14 13 13 13 13 12 12 12 11 11 10
16 17 16 17 16 15 15 16 16 16 17 18 17 15 15 15 16 15 20 20 19 19 19 19 19 18 19 20 19 19 18 17 16 16 16 15 14 14 14 14 14 14 13 13 13 12 12 12 11 11 11 10 10 9
15 15 15 15 16 16 15 16 16 16 16 16 17 16 16 17 16 15 20 20 21 21 20 20 20 20 20 19 18 18 18 17 16 16 15 15 15 15 14 14 14 14 13 13 12 12 12 12 11 11 10 10 9 9
Height
821 819 817 814 811 808 805 803 801 798 795 793 791 789 787 785 784 782 780 780 781 782 773 764 762 763 762 761 763 750 744 741 740 748 752 756 754 754 764 763 766 778 784 793 798 803 800 778 773 780 791 788 790 789
819 816 814 811 808 805 803 801 798 796 793 791 789 787 785 784 782 780 779 779 779 778 770 761 757 755 756 752 757 753 752 750 747 752 753 754 756 763 775 777 767 789 784 792 797 811 798 789 787 787 789 792 792 789
815 813 811 808 805 803 800 798 796 793 790 788 786 785 783 782 781 780 778 777 776 775 768 762 752 749 748 747 749 756 750 744 743 741 749 753 766 770 781 786 777 775 772 784 793 809 804 798 794 795 794 796 797 795
813 810 808 806 803 800 798 795 793 791 788 786 784 782 781 780 779 778 777 776 776 777 779 764 751 746 745 742 743 743 740 738 738 741 750 761 766 767 785 788 791 790 782 794 801 804 799 804 803 802 801 798 798 800
810 808 805 803 800 798 796 793 791 789 786 784 782 781 780 779 778 776 775 776 775 778 779 769 753 746 743 740 739 739 738 740 744 747 755 766 769 773 788 792 802 800 798 802 810 804 805 814 810 806 804 807 808 804
808 805 803 801 799 796 794 792 789 787 785 783 781 780 779 777 776 775 777 777 775 774 776 776 759 750 744 740 739 738 740 743 748 758 766 768 770 778 798 814 810 804 797 796 808 807 808 811 811 811 809 809 807 804
806 804 802 800 798 795 793 790 788 786 783 781 780 779 778 777 776 776 779 775 774 773 776 777 772 754 749 746 743 743 743 749 754 766 773 776 779 781 801 813 811 808 805 806 807 806 814 816 820 818 817 818 815 817
805 802 800 798 796 794 791 789 786 784 782 781 779 778 777 776 776 775 775 774 773 773 776 783 775 764 755 757 754 750 751 752 764 774 778 783 785 793 809 810 810 809 808 809 809 811 817 819 819 819 820 813 813 815
804 801 799 797 795 792 790 788 785 782 781 779 778 777 777 777 777 777 776 775 774 777 784 787 782 779 764 764 762 755 756 770 773 783 786 788 799 807 806 810 809 807 808 815 816 817 819 821 824 824 820 817 820 819
804 801 799 796 793 791 788 787 784 781 779 777 777 777 782 780 779 779 777 778 779 781 783 790 788 784 779 773 768 766 766 778 789 792 790 796 809 808 807 808 808 810 812 815 820 826 826 827 826 825 824 825 823 821
803 801 798 795 793 790 788 786 784 780 779 778 780 782 780 779 779 781 785 785 787 788 791 792 792 789 780 780 778 774 773 779 793 792 799 809 811 809 808 808 808 811 812 814 816 820 822 823 825 826 827 827 826 824
803 800 798 795 792 789 787 786 784 782 781 781 782 781 781 782 787 787 793 791 789 789 790 789 788 789 786 782 780 775 776 780 786 790 801 812 806 806 808 808 809 811 814 817 818 822 824 824 826 827 828 827 826 825
802 799 797 794 791 789 787 786 785 782 781 781 782 785 785 791 795 790 795 793 791 789 788 788 788 789 787 783 784 784 778 789 789 800 807 808 806 807 807 807 810 812 815 819 822 825 827 828 829 829 830 829 828 826
801 798 796 794 791 789 788 786 784 783 782 787 791 805 799 797 802 800 800 799 794 791 787 787 786 786 787 787 787 779 788 786 797 806 806 807 807 808 808 808 811 815 817 820 823 826 827 829 830 830 830 830 828 826
800 797 795 793 791 789 787 786 785 784 785 793 796 803 802 803 801 799 800 798 792 790 792 789 788 791 789 789 789 788 787 800 800 796 805 805 806 808 809 810 813 815 818 820 822 824 826 828 828 829 829 829 828 825
798 797 796 793 790 787 786 786 785 786 790 795 800 802 804 801 802 800 799 797 790 788 787 789 792 791 791 792 792 794 796 799 800 801 802 803 806 807 810 811 813 815 817 819 821 823 825 828 828 827 828 828 826 824
798 797 795 792 789 786 786 785 786 790 794 797 803 805 805 804 804 801 798 794 789 789 790 790 789 792 794 791 794 796 798 797 796 799 800 801 803 806 808 810 812 815 817 819 820 823 825 826 825 826 827 826 826 825
797 796 794 791 789 787 787 786 787 792 796 799 800 801 801 800 799 797 794 790 790 789 789 789 790 792 793 795 799 797 798 798 798 799 800 801 804 806 808 810 812 814 817 820 822 823 824 825 826 827 826 825 825 824
795 793 793 791 789 788 789 788 788 797 798 797 796 795 795 794 791 790 790 789 788 787 788 790 793 800 802 800 800 799 800 800 802 803 804 805 805 807 809 811 813 816 819 820 822 822 824 825 825 824 823 823 822 820
792 791 791 790 788 788 789 791 790 795 797 797 796 797 796 795 793 790 788 787 788 789 793 798 802 801 800 799 799 798 798 798 800 805 808 809 809 810 811 812 814 816 818 820 822 822 823 823 823 822 821 820 819 817
791 791 789 788 787 788 789 790 793 794 796 797 797 797 799 797 797 796 795 792 795 801 802 802 802 799 799 800 799 799 798 800 802 804 808 811 811 811 812 814 815 817 818 820 820 821 821 820 820 819 819 818 817 814
792 791 789 789 788 788 789 787 790 792 795 797 798 799 801 803 803 800 799 801 804 803 802 802 802 801 801 801 800 800 801 802 804 805 807 809 811 812 813 813 815 817 817 818 819 819 818 817 817 817 816 815 814 812
791 790 789 788 790 794 793 787 791 792 796 799 800 800 803 803 802 801 807 807 805 801 800 800 800 800 801 800 800 801 802 804 806 807 808 809 810 811 812 814 815 815 816 816 816 816 815 814 814 812 811 812 811 810
792 791 790 790 790 794 789 794 795 797 796 797 796 797 800 803 803 809 809 809 804 800 800 800 801 802 803 802 802 801 802 803 805 806 806 807 808 809 810 811 812 813 813 813 812 812 811 811 810 809 808 807 807 808
798 797 796 804 791 791 792 793 796 797 795 797 793 799 798 801 809 810 810 809 804 802 801 801 801 802 805 805 803 802 802 802 803 804 805 805 806 807 809 810 810 810 810 810 809 809 808 808 807 806 805 804 804 804
801 790 793 785 786 786 789 795 794 795 796 794 795 794 795 802 804 807 808 803 800 799 799 800 801 803 804 803 803 802 802 801 802 803 804 804 805 806 807 808 808 806 808 807 806 805 804 804 803 802 801 801 801 800
800 787 783 782 783 786 790 791 791 793 792 791 789 793 792 798 800 800 795 794 794 793 794 796 797 798 799 801 801 802 802 803 802 802 803 806 807 807 806 806 807 806 803 801 799 799 799 799 798 797 796 796 797 797
789 784 784 783 782 784 789 789 789 789 788 788 788 787 790 792 796 791 788 787 789 791 792 794 795 796 797 799 800 802 802 804 804 805 805 807 807 807 807 806 805 803 801 798 797 795 794 794 794 793 792 793 794 794
787 781 782 781 781 784 785 786 785 784 781 783 784 785 785 785 782 783 784 786 788 790 791 792 791 790 792 796 799 800 802 802 803 805 806 807 806 806 805 804 803 801 799 798 796 794 792 791 791 791 793 793 793 793
780 777 780 780 781 783 782 779 778 775 776 776 777 781 784 783 781 782 784 786 787 788 788 788 788 789 790 793 797 799 801 803 803 804 806 806 805 805 804 803 802 801 799 797 795 794 793 793 793 793 793 793 792 792
777 778 779 781 781 780 777 775 774 774 774 776 776 781 784 784 783 783 784 784 785 786 787 787 787 789 790 794 796 798 801 802 803 804 804 803 803 804 804 803 802 801 799 797 796 796 796 796 796 796 795 793 793 792
779 779 782 781 781 777 775 776 777 778 777 777 778 780 783 785 787 782 780 782 783 784 785 785 785 787 789 791 792 795 796 798 800 802 802 802 803 803 803 803 802 801 801 800 799 798 798 797 797 796 794 794 793 793
779 780 781 782 781 779 780 779 779 779 780 779 778 778 778 780 785 777 777 779 780 780 781 783 785 786 788 789 791 793 795 797 799 801 801 802 802 802 802 802 802 801 801 800 799 798 798 797 796 795 794 793 793 791
Wind_Speed
14 12 13 14 14 14 13 13 13 14 13 12 11 10 10 9 9 9 3 4 1 2 5 4 2 2 4 1 2 5 3 4 5 5 3 3 3 1 4 3 0 4 3 2 3 4 2 13 4 5 4 5 5 6
15 14 13 14 14 13 12 13 12 13 12 12 11 10 8 7 6 7 3 3 6 4 5 14 21 26 17 20 1 3 2 2 3 3 1 2 3 3 2 2 4 5 1 5 3 4 4 6 10 8 5 5 5 9
15 14 13 14 14 13 11 11 11 12 12 12 11 9 6 5 4 5 5 7 1 2 5 4 4 5 10 14 19 1 3 4 3 4 3 2 7 3 3 2 2 6 4 7 6 4 11 12 14 14 12 13 12 13
15 14 13 13 13 13 11 10 11 12 12 11 10 8 5 4 4 7 5 7 2 2 1 6 9 7 9 7 11 8 5 4 0 2 2 4 4 3 3 2 4 2 5 4 11 6 10 14 12 10 13 14 14 13
14 13 13 12 12 11 9 9 10 12 12 11 9 8 6 6 8 10 2 5 7 2 2 5 16 5 12 9 8 5 6 2 3 3 4 3 2 5 2 4 6 5 1 3 3 3 10 2 5 9 13 11 10 9
12 12 11 11 11 10 9 9 11 12 11 10 9 8 7 7 10 2 3 3 9 5 1 3 5 6 11 15 8 6 3 2 3 3 2 3 4 4 4 3 6 6 8 4 4 6 11 10 12 14 13 12 13 14
12 11 9 8 9 10 9 10 10 10 10 9 7 6 5 6 6 1 3 4 8 4 2 4 5 4 7 5 4 3 5 3 3 2 3 3 4 4 3 3 5 3 7 5 4 7 12 12 7 12 14 13 13 13
12 10 9 9 10 10 11 10 9 9 10 10 8 6 6 7 4 3 5 3 2 4 3 2 4 4 9 4 3 3 2 3 5 3 2 3 3 3 4 3 3 5 10 11 12 12 8 10 12 13 15 18 14 12
12 10 9 9 9 10 11 11 10 9 9 8 7 3 1 2 3 3 2 2 6 4 2 2 3 3 7 3 2 3 3 4 1 3 2 2 3 4 6 5 5 3 5 8 10 11 11 12 9 10 10 13 10 11
11 10 9 9 9 10 10 11 12 11 6 5 3 3 4 5 5 1 2 4 4 4 3 2 2 3 3 3 3 1 3 2 3 2 1 4 3 1 1 4 7 8 8 9 11 7 6 7 7 8 9 10 10 13
11 10 10 11 11 10 10 11 12 9 5 3 4 1 4 6 1 3 3 3 2 3 2 1 1 2 3 3 3 2 1 1 4 3 4 2 2 3 4 5 5 6 10 9 12 10 12 10 7 7 8 12 13 14
12 11 11 11 11 9 8 9 12 6 4 4 3 3 3 4 3 4 2 3 4 2 1 2 2 2 3 2 3 4 3 3 3 2 4 3 2 2 6 5 5 11 14 13 16 14 14 16 17 15 12 12 13 14
13 12 11 10 9 8 7 9 11 10 2 3 3 3 3 3 6 3 2 2 3 3 2 2 1 1 3 3 1 2 4 1 2 4 2 3 2 3 3 3 6 11 17 15 13 16 17 16 16 16 12 11 12 15
16 13 11 11 8 6 7 9 10 4 1 3 4 6 2 3 3 1 1 2 4 2 5 2 2 2 2 3 1 3 1 3 3 3 2 3 5 5 3 4 7 7 10 13 13 15 15 15 13 12 12 9 12 16
17 13 7 15 10 7 5 6 5 5 4 3 3 3 2 2 3 2 2 3 3 0 0 2 3 3 3 5 3 3 4 3 1 3 3 3 6 6 6 5 7 6 8 7 11 13 13 12 11 9 8 11 16 20
16 9 9 20 15 8 4 2 2 3 3 3 4 2 3 2 3 3 2 3 2 3 0 2 4 2 1 3 1 2 3 1 2 2 3 5 7 6 6 6 9 10 10 9 10 12 13 11 9 8 5 7 11 14
8 4 14 18 17 6 6 2 2 4 3 3 1 1 1 2 3 3 2 3 4 3 2 2 4 1 1 2 2 3 2 2 3 3 3 5 7 6 8 10 12 11 13 11 10 9 12 11 7 5 2 1 3 6
4 16 13 13 15 6 3 3 3 3 4 1 2 2 2 3 3 3 3 2 2 2 1 2 1 5 3 3 3 1 2 2 2 2 3 3 7 9 11 11 11 16 13 11 8 9 10 11 5 3 4 4 4 6
20 15 8 9 11 4 2 2 2 3 1 1 2 1 1 2 3 3 2 3 2 2 2 3 4 3 2 1 2 2 1 2 3 2 3 7 10 10 8 11 17 15 14 11 7 6 5 4 3 5 8 9 10 10
10 8 6 11 5 1 2 3 2 3 1 2 1 2 2 2 3 3 3 3 2 2 4 3 2 2 0 1 0 1 2 3 3 3 3 4 8 12 12 18 15 13 12 8 6 5 4 5 7 8 11 13 13 17
5 2 9 5 1 1 2 1 2 2 2 1 1 2 2 2 3 3 4 2 4 3 2 2 3 3 4 7 3 4 4 4 2 3 3 3 4 8 9 12 13 13 10 8 7 8 9 12 10 11 12 13 13 14
4 7 3 2 1 1 1 3 4 1 2 1 2 2 2 1 3 3 2 4 2 1 1 2 2 1 0 1 1 3 5 5 6 8 8 9 3 4 8 16 13 12 12 13 13 11 11 12 12 12 13 13 9 8
5 3 2 1 1 2 4 2 3 2 1 0 1 3 0 0 2 2 3 1 2 3 2 1 1 2 2 2 1 0 2 3 5 4 3 4 4 5 10 15 12 10 8 9 11 13 15 13 12 12 14 16 10 10
4 2 1 1 3 2 2 1 2 2 1 0 1 2 2 3 1 3 1 2 3 4 1 3 5 2 3 4 2 3 3 5 3 2 7 7 8 11 17 19 15 13 13 10 9 9 10 13 10 10 10 13 12 11
3 4 3 4 2 2 2 2 1 1 1 0 2 0 2 2 2 1 2 3 1 1 1 1 3 4 2 1 3 0 2 5 7 4 10 13 13 12 15 14 15 16 14 15 14 12 10 8 10 9 11 13 14 12
1 3 6 3 2 4 4 2 3 3 2 1 3 2 2 3 2 3 3 3 3 4 4 5 5 2 1 5 3 3 3 4 11 6 10 14 17 17 17 10 12 18 12 20 20 17 16 12 11 9 10 14 14 12
2 3 3 2 2 3 2 2 2 2 2 4 2 4 3 3 4 3 2 4 3 7 11 11 12 9 6 5 6 6 3 6 6 4 7 10 8 6 3 8 8 7 6 7 12 19 21 18 14 11 12 11 13 12
4 2 1 3 1 2 3 2 3 4 3 3 2 3 5 6 5 3 5 11 12 10 9 11 13 14 12 10 6 5 11 16 17 18 16 12 8 6 3 2 3 2 3 6 5 4 11 14 12 11 8 9 9 9
3 2 1 2 1 1 2 4 3 3 3 3 3 2 2 2 3 4 6 10 10 7 6 8 10 8 12 12 6 9 15 14 9 3 2 1 4 4 5 5 2 4 5 5 6 7 9 5 5 7 3 3 3 5
3 2 1 0 1 1 3 4 3 3 2 3 3 2 3 2 4 7 9 9 8 7 5 3 3 12 16 14 12 12 12 9 6 6 5 4 3 2 3 6 7 8 7 6 4 8 11 13 11 7 5 3 3 4
1 2 1 1 2 2 3 3 1 1 1 1 1 3 4 2 2 10 12 10 8 4 7 8 10 16 19 21 18 13 7 9 8 6 3 2 4 6 7 8 9 9 9 12 14 14 13 12 11 10 8 3 3 6
1 1 2 0 2 3 2 1 1 0 1 2 2 2 1 2 2 3 9 12 10 7 7 13 14 19 21 20 17 15 11 15 14 8 7 8 6 4 4 6 8 8 8 10 11 10 9 8 8 7 8 8 5 3
1 2 1 1 1 2 3 2 1 1 1 1 2 4 5 5 6 5 9 14 10 10 14 14 16 17 20 20 19 14 14 15 13 9 8 6 3 1 5 5 4 4 4 4 6 6 6 5 4 4 3 2 1 1
Wind_Direction
330 328 329 331 331 332 334 334 335 330 332 331 332 332 331 334 342 338 256 228 212 206 274 252 279 263 333 14 10 294 5 346 3 60 104 198 127 149 84 30 53 94 70 94 84 83 132 346 342 148 160 90 120 64
323 326 327 328 329 330 330 334 330 331 333 333 333 333 332 335 343 342 271 320 287 193 241 289 276 261 242 236 172 309 202 257 236 71 35 120 64 53 128 122 350 33 144 131 100 133 299 343 64 46 63 94 50 71
326 329 328 330 327 327 326 329 333 335 336 337 338 339 343 349 355 344 309 345 299 25 310 348 291 337 319 247 235 177 297 246 308 178 178 133 82 96 62 26 116 19 40 119 77 346 58 50 56 55 53 59 51 51
325 332 334 328 325 327 326 332 336 337 337 339 344 348 355 2 351 330 327 343 354 108 36 283 330 315 330 301 201 233 253 325 8 81 89 74 91 37 59 127 79 289 12 102 104 148 81 36 44 53 56 54 53 46
336 339 334 331 326 320 327 330 334 335 337 341 346 350 350 347 343 323 279 76 17 155 236 280 311 301 344 337 309 336 19 8 50 45 55 83 92 81 33 64 19 342 281 134 111 71 102 101 33 51 60 53 42 55
342 341 343 345 342 333 334 332 333 335 338 341 343 344 345 351 358 49 23 206 18 5 77 328 309 297 331 338 327 348 69 41 76 70 32 60 19 94 84 82 312 325 58 82 104 99 106 103 56 44 44 33 30 39
342 341 342 343 346 347 339 334 338 339 335 336 339 337 336 331 342 112 205 308 325 345 70 326 334 310 311 329 347 16 26 81 100 78 37 61 20 60 81 104 217 326 77 89 163 103 63 47 63 49 47 37 45 39
348 350 347 350 350 347 342 339 342 344 344 344 341 330 317 314 335 25 28 29 23 91 74 42 286 352 12 344 354 350 42 56 28 131 40 45 9 57 86 202 221 119 95 76 73 76 101 91 65 48 38 37 34 21
358 1 2 2 359 354 349 345 342 345 344 339 334 358 66 27 20 12 23 71 48 72 103 62 14 294 350 345 310 359 21 59 227 71 51 83 6 39 154 171 167 187 122 136 91 81 74 71 62 49 40 36 32 12
359 1 2 1 360 357 353 351 346 347 8 26 41 36 8 0 333 322 349 20 17 348 32 48 303 315 8 353 332 22 33 110 40 311 76 62 38 33 118 142 121 126 130 124 109 95 93 78 69 48 41 28 21 14
356 356 358 359 356 357 357 356 353 346 0 45 36 63 324 330 3 34 24 54 333 40 13 294 104 316 342 22 316 8 91 85 118 240 101 85 128 184 163 117 121 121 131 112 116 122 124 118 100 75 47 35 28 14
354 353 352 351 351 354 5 9 9 19 356 318 279 317 342 35 39 69 16 355 26 4 325 344 282 200 297 318 18 347 88 40 105 150 83 110 177 140 148 140 124 123 124 124 125 122 112 104 98 88 68 48 34 22
349 349 356 360 3 5 18 7 354 350 20 78 54 49 18 326 47 28 47 2 346 336 192 243 210 205 349 19 275 340 69 108 97 46 104 188 172 147 158 122 118 126 135 133 131 133 126 116 103 92 83 59 38 23
343 341 354 0 359 2 3 1 357 355 42 64 55 21 52 354 25 17 19 283 271 267 330 330 91 29 43 5 15 62 274 75 75 74 180 189 168 163 125 102 117 136 136 154 151 148 134 122 114 95 70 48 28 14
340 339 343 0 352 344 340 350 8 43 60 69 45 33 37 306 268 262 258 296 260 246 47 85 39 13 4 359 6 342 46 57 77 142 174 164 157 144 132 125 130 130 128 128 152 146 148 134 124 105 76 58 48 35
337 338 347 347 349 346 350 344 46 75 59 74 60 39 333 340 323 326 295 278 302 318 282 116 130 175 116 114 86 359 87 76 165 174 158 138 151 150 153 155 143 142 142 135 142 152 154 154 154 148 121 62 48 38
344 350 336 343 355 353 10 54 76 54 101 65 21 165 190 271 247 265 263 266 303 0 40 43 56 33 195 83 50 26 76 128 139 113 128 154 157 163 159 146 148 148 143 142 129 151 171 174 166 154 161 190 42 17
318 329 333 335 348 350 344 23 86 77 50 195 139 225 200 205 235 260 258 277 3 17 60 84 150 38 42 51 42 52 64 63 57 115 149 139 134 144 151 144 147 148 142 138 144 154 172 186 198 207 247 286 280 315
319 323 334 332 342 338 2 2 77 103 261 243 271 297 189 243 244 246 260 272 251 233 114 39 52 39 50 45 91 49 84 131 136 109 82 114 129 128 130 137 139 141 145 146 148 159 168 194 232 261 263 271 275 287
306 318 321 323 314 118 0 334 74 111 139 252 45 4 327 302 317 331 346 355 22 47 43 49 42 310 307 330 352 188 184 159 121 97 78 61 109 125 132 148 145 146 149 152 167 190 209 243 250 256 262 270 273 287
329 352 333 337 308 192 173 146 38 166 139 95 290 65 358 3 16 11 9 340 47 40 53 98 218 255 285 307 314 130 131 122 94 119 145 123 130 146 143 159 160 163 166 174 199 228 233 247 256 259 272 284 294 297
340 332 302 299 319 5 281 205 142 157 86 143 65 72 73 39 343 346 314 44 54 290 186 145 192 212 239 139 136 110 112 118 117 105 104 130 116 130 155 170 163 185 206 212 220 236 255 268 272 263 268 282 293 295
331 330 285 268 235 41 263 123 74 59 77 197 58 108 6 322 245 20 52 309 264 250 255 169 97 85 69 36 21 26 106 118 106 131 171 196 185 185 178 181 197 197 220 248 248 249 258 274 290 282 262 259 272 264
321 310 300 257 154 247 57 47 39 40 340 74 119 107 158 166 55 54 20 281 258 295 311 154 137 50 41 46 28 301 250 218 191 229 213 192 184 201 200 202 210 217 221 217 223 238 256 260 274 271 265 245 246 246
50 300 100 301 256 107 108 111 91 59 283 44 123 101 181 99 89 117 188 274 269 246 281 22 100 96 124 291 305 88 141 198 196 194 184 189 177 176 192 214 227 236 231 228 235 242 252 261 262 269 263 246 229 245
135 233 155 220 228 159 159 104 226 189 172 199 234 180 121 107 123 201 219 217 219 193 193 186 176 149 220 214 189 179 151 161 161 153 189 200 199 197 209 216 240 259 262 250 251 248 248 255 267 254 255 236 230 243
320 277 236 231 144 118 82 65 100 121 194 210 203 173 167 149 210 238 236 205 185 202 193 190 187 186 178 170 207 227 210 153 143 158 145 128 124 109 131 224 245 291 317 289 257 248 249 250 261 255 259 247 232 245
245 272 295 288 97 122 138 150 179 206 219 221 134 177 176 192 217 220 199 187 190 199 213 228 237 241 236 230 221 197 159 140 115 117 113 108 99 86 74 35 12 4 37 35 12 302 259 253 258 251 217 211 235 245
268 256 141 321 83 120 165 195 214 231 203 150 142 139 173 229 190 172 173 177 189 201 234 271 286 269 218 222 238 203 186 168 158 130 116 279 348 353 358 350 58 68 42 25 6 329 310 253 226 180 188 221 284 215
247 165 121 257 158 238 254 189 211 212 186 178 131 81 29 338 203 172 178 192 208 242 275 239 245 166 154 155 150 148 168 177 184 160 168 223 258 347 33 87 61 49 37 23 40 93 93 93 88 89 61 6 268 233
214 62 38 170 243 255 246 268 288 85 76 79 62 119 170 206 217 206 212 212 215 209 163 146 143 154 153 162 157 153 162 175 169 158 147 153 128 112 103 74 73 68 77 85 89 82 81 72 63 54 48 87 81 113
32 206 151 253 289 295 356 117 100 67 292 154 144 114 110 72 203 272 209 206 199 207 192 181 167 175 178 180 188 180 190 182 172 161 150 143 137 126 114 100 88 76 98 87 88 88 83 75 59 54 83 102 101 88
57 85 75 82 339 355 341 14 8 323 2 340 236 189 185 170 198 240 194 202 219 233 201 188 192 185 185 187 185 185 179 170 163 154 152 156 145 110 144 129 100 87 80 103 99 91 72 61 53 98 101 61 165 258